This is the latest recevied weather packets stored in our database for station/object KC3DGM. If no packets are shown the sender has not sent any weather packets the latest 10 day(s).
| Time | Temp. | Humidity | Pressure | Rain* | Wind** | Luminosity | Snow |
|---|---|---|---|---|---|---|---|
| 1777928586 | 22.22° C | 45% | 976.9 hPa | 0 mm | - | 185 W/m² | - |
| 1777928283 | 22.78° C | 49% | 976.8 hPa | 0 mm | - | 221 W/m² | - |
| 1777927981 | 22.22° C | 51% | 976.9 hPa | 0 mm | - | 185 W/m² | - |
| 1777927678 | 21.67° C | 52% | 976.9 hPa | 0 mm | - | 150 W/m² | - |
| 1777927376 | 22.78° C | 47% | 977.1 hPa | 0 mm | - | 124 W/m² | - |
| 1777927076 | 22.22° C | 47% | 976.7 hPa | 0 mm | - | 220 W/m² | - |
| 1777926772 | 22.22° C | 48% | 977.1 hPa | 0 mm | - | 279 W/m² | - |
| 1777926467 | 21.67° C | 51% | 977 hPa | 0 mm | - | 220 W/m² | - |
| 1777926165 | 22.22° C | 48% | 977.1 hPa | 0 mm | - | 65 W/m² | - |
| 1777925861 | 22.22° C | 49% | 976.9 hPa | 0 mm | - | 72 W/m² | - |
| 1777925558 | 21.67° C | 51% | 977 hPa | 0 mm | - | 100 W/m² | - |
| 1777925257 | 21.67° C | 52% | 977.1 hPa | 0 mm | - | 81 W/m² | - |
| 1777924952 | 21.67° C | 52% | 977.2 hPa | 0 mm | - | 69 W/m² | - |
| 1777924649 | 22.22° C | 47% | 977.5 hPa | 0 mm | - | 92 W/m² | - |
| 1777924345 | 22.22° C | 49% | 977.5 hPa | 0 mm | - | 154 W/m² | - |
| 1777924042 | 22.22° C | 46% | 977.2 hPa | 0 mm | - | 283 W/m² | - |
| 1777923738 | 22.22° C | 46% | 977.4 hPa | 0 mm | - | 127 W/m² | - |
| 1777923435 | 22.78° C | 45% | 977.3 hPa | 0 mm | - | 246 W/m² | - |
| 1777923132 | 22.22° C | 46% | 977.5 hPa | 0 mm | - | 234 W/m² | - |
| 1777922830 | 22.78° C | 48% | 977.7 hPa | 0 mm | - | 585 W/m² | - |
| 1777922528 | 22.78° C | 47% | 977.5 hPa | 0 mm | - | 142 W/m² | - |
| 1777922227 | 22.78° C | 45% | 977.7 hPa | 0 mm | - | 96 W/m² | - |
| 1777921923 | 22.22° C | 45% | 977.8 hPa | 0 mm | - | 110 W/m² | - |
| 1777921618 | 22.22° C | 46% | 977.4 hPa | 0 mm | - | 554 W/m² | - |
| 1777921315 | 22.78° C | 47% | 977.7 hPa | 0 mm | - | 584 W/m² | - |
* Rain latest hour (hover to see other rain measurements)
** Current wind speed in m/s (hover to see current wind gust speed)